When you browse on this site, cookies collect data to enhance your experience and personalize the content and advertising you see.
Visit our Privacy Policy to learn more. By continuing to use the site, you agree to this use of cookies and data.
  • In France
  • List of Countries
  • For 7 days
  • Water Temperature
  • Satellite Maps
  • Weather Map
  • Weather Widgets
  • user-avatar
    Login

    Hourly Weather Santa Cruz

    Today, 25 May, Saturday

    Time Temperature Precipitation Wind Pressure Humidity
    00:00 +14°C° 0 mm 1 mps 725 mmHg 54%
    01:00 +14°C° 0 mm 1 mps 725 mmHg 54%
    02:00 +14°C° 0 mm 1 mps 725 mmHg 56%
    03:00 +13°C° 0 mm 1 mps 725 mmHg 58%
    04:00 +12°C° 0 mm 0 mps 724 mmHg 59%
    05:00 +12°C° 0 mm 0 mps 724 mmHg 60%
    06:00 +13°C° 0 mm 0 mps 724 mmHg 60%
    07:00 +14°C° 0 mm 0 mps 724 mmHg 60%
    08:00 +15°C° 0 mm 0 mps 725 mmHg 60%
    09:00 +19°C° 0 mm 1 mps 725 mmHg 56%
    10:00 +20°C° 0 mm 2 mps 725 mmHg 51%
    11:00 +24°C° 0 mm 3 mps 724 mmHg 46%
    12:00 +25°C° 0 mm 3 mps 724 mmHg 46%
    13:00 +25°C° 0 mm 4 mps 723 mmHg 46%
    14:00 +26°C° 0 mm 4 mps 722 mmHg 46%
    15:00 +26°C° 0 mm 4 mps 721 mmHg 51%
    16:00 +25°C° 0 mm 4 mps 721 mmHg 55%
    17:00 +24°C° 0 mm 3 mps 720 mmHg 59%
    18:00 +24°C° 0 mm 3 mps 720 mmHg 61%
    19:00 +22°C° 0 mm 3 mps 721 mmHg 62%
    20:00 +21°C° 0 mm 3 mps 721 mmHg 63%
    21:00 +21°C° 0 mm 3 mps 721 mmHg 64%
    22:00 +21°C° 0 mm 3 mps 721 mmHg 64%
    23:00 +21°C° 0 mm 3 mps 722 mmHg 65%

    Tomorrow, 26 May, Sunday

    Time Temperature Precipitation Wind Pressure Humidity
    00:00 +21°C° 0 mm 4 mps 721 mmHg 66%
    01:00 +21°C° 0 mm 4 mps 721 mmHg 68%
    02:00 +21°C° 0 mm 5 mps 721 mmHg 69%
    03:00 +21°C° 0 mm 5 mps 721 mmHg 71%
    04:00 +21°C° 0 mm 5 mps 721 mmHg 73%
    05:00 +21°C° 0 mm 5 mps 720 mmHg 75%
    06:00 +22°C° 0 mm 6 mps 721 mmHg 75%
    07:00 +22°C° 0 mm 6 mps 721 mmHg 75%
    08:00 +22°C° 0 mm 6 mps 721 mmHg 75%
    09:00 +24°C° 0 mm 6 mps 721 mmHg 70%
    10:00 +26°C° 0 mm 7 mps 721 mmHg 65%
    11:00 +28°C° 0 mm 7 mps 721 mmHg 60%
    12:00 +29°C° 0 mm 7 mps 720 mmHg 57%
    13:00 +30°C° 0 mm 7 mps 720 mmHg 55%
    14:00 +32°C° 0 mm 7 mps 719 mmHg 52%
    15:00 +30°C° 0 mm 7 mps 718 mmHg 55%
    16:00 +29°C° 0 mm 6 mps 718 mmHg 58%
    17:00 +29°C° 0 mm 5 mps 718 mmHg 61%
    18:00 +28°C° 0 mm 5 mps 718 mmHg 62%
    19:00 +28°C° 0 mm 5 mps 719 mmHg 63%
    20:00 +27°C° 0 mm 5 mps 719 mmHg 64%
    21:00 +27°C° 0 mm 5 mps 719 mmHg 66%
    22:00 +27°C° 0 mm 5 mps 720 mmHg 68%
    23:00 +26°C° 0 mm 6 mps 720 mmHg 69%

    Day after tomorrow, 27 May, Monday

    Time Temperature Precipitation Wind Pressure Humidity
    00:00 +26°C° 0 mm 5 mps 720 mmHg 72%
    01:00 +25°C° 0 mm 5 mps 720 mmHg 75%
    02:00 +25°C° 0 mm 5 mps 720 mmHg 78%
    03:00 +25°C° 0 mm 5 mps 720 mmHg 80%
    04:00 +25°C° 0 mm 5 mps 720 mmHg 82%
    05:00 +23°C° 0 mm 4 mps 720 mmHg 83%
    06:00 +25°C° 0 mm 4 mps 720 mmHg 83%
    07:00 +25°C° 0 mm 5 mps 721 mmHg 82%
    08:00 +25°C° 0 mm 5 mps 721 mmHg 82%
    09:00 +26°C° 0 mm 5 mps 721 mmHg 78%
    10:00 +27°C° 0 mm 5 mps 722 mmHg 75%
    11:00 +28°C° 0 mm 5 mps 722 mmHg 71%
    12:00 +29°C° 0.1 mm 5 mps 721 mmHg 68%
    13:00 +29°C° 0.1 mm 5 mps 720 mmHg 64%
    14:00 +30°C° 0.1 mm 5 mps 719 mmHg 61%
    15:00 +30°C° 0 mm 5 mps 719 mmHg 63%
    16:00 +29°C° 0 mm 4 mps 719 mmHg 66%
    17:00 +29°C° 0 mm 4 mps 719 mmHg 68%
    18:00 +28°C° 0 mm 3 mps 719 mmHg 71%
    19:00 +27°C° 0 mm 3 mps 719 mmHg 74%
    20:00 +26°C° 0 mm 3 mps 720 mmHg 77%
    21:00 +26°C° 0 mm 3 mps 720 mmHg 79%
    22:00 +25°C° 0 mm 3 mps 720 mmHg 82%
    23:00 +25°C° 0 mm 3 mps 721 mmHg 84%

    28 May, Tuesday

    Time Temperature Precipitation Wind Pressure Humidity
    00:00 +25°C° 0.1 mm 3 mps 720 mmHg 87%
    01:00 +24°C° 0.1 mm 3 mps 720 mmHg 90%
    02:00 +24°C° 0.1 mm 3 mps 720 mmHg 92%
    03:00 +24°C° 0 mm 3 mps 720 mmHg 93%
    04:00 +24°C° 0 mm 3 mps 720 mmHg 93%
    05:00 +24°C° 0 mm 3 mps 720 mmHg 93%
    06:00 +23°C° 0 mm 4 mps 721 mmHg 90%
    07:00 +25°C° 0 mm 4 mps 721 mmHg 88%
    08:00 +25°C° 0 mm 4 mps 722 mmHg 86%
    09:00 +27°C° 0 mm 5 mps 722 mmHg 79%
    10:00 +29°C° 0 mm 5 mps 722 mmHg 71%
    11:00 +30°C° 0 mm 6 mps 722 mmHg 64%
    12:00 +32°C° 0 mm 6 mps 721 mmHg 62%
    13:00 +32°C° 0 mm 6 mps 720 mmHg 59%
    14:00 +33°C° 0 mm 6 mps 719 mmHg 56%
    15:00 +32°C° 0 mm 5 mps 719 mmHg 59%
    16:00 +32°C° 0 mm 4 mps 719 mmHg 62%
    17:00 +30°C° 0 mm 3 mps 719 mmHg 64%
    18:00 +29°C° 0 mm 3 mps 719 mmHg 68%
    19:00 +28°C° 0 mm 3 mps 719 mmHg 71%
    20:00 +27°C° 0 mm 3 mps 720 mmHg 74%
    21:00 +27°C° 0 mm 2 mps 720 mmHg 78%
    22:00 +26°C° 0 mm 2 mps 721 mmHg 82%
    23:00 +25°C° 0 mm 2 mps 721 mmHg 85%

    29 May, Wednesday

    Time Temperature Precipitation Wind Pressure Humidity
    00:00 +25°C° 0.1 mm 2 mps 721 mmHg 88%
    01:00 +25°C° 0.1 mm 2 mps 721 mmHg 90%
    02:00 +24°C° 0.1 mm 2 mps 720 mmHg 93%
    03:00 +24°C° 0.1 mm 2 mps 720 mmHg 94%
    04:00 +24°C° 0.1 mm 2 mps 720 mmHg 95%
    05:00 +24°C° 0.1 mm 2 mps 721 mmHg 95%
    06:00 +24°C° 0.2 mm 2 mps 721 mmHg 94%
    07:00 +25°C° 0.2 mm 2 mps 722 mmHg 94%
    08:00 +25°C° 0.2 mm 3 mps 722 mmHg 93%
    09:00 +27°C° 0.2 mm 4 mps 722 mmHg 86%
    10:00 +28°C° 0.2 mm 5 mps 722 mmHg 78%
    11:00 +30°C° 0.2 mm 6 mps 722 mmHg 71%
    12:00 +30°C° 0.1 mm 6 mps 721 mmHg 67%
    13:00 +32°C° 0.1 mm 6 mps 720 mmHg 63%
    14:00 +33°C° 0.1 mm 6 mps 719 mmHg 59%
    15:00 +32°C° 0 mm 5 mps 719 mmHg 62%
    16:00 +30°C° 0 mm 5 mps 718 mmHg 64%
    17:00 +30°C° 0 mm 4 mps 718 mmHg 66%
    18:00 +29°C° 0 mm 4 mps 718 mmHg 68%
    19:00 +28°C° 0 mm 4 mps 719 mmHg 70%
    20:00 +28°C° 0 mm 4 mps 719 mmHg 73%
    21:00 +28°C° 0 mm 4 mps 719 mmHg 72%
    22:00 +28°C° 0 mm 5 mps 720 mmHg 72%
    23:00 +28°C° 0 mm 5 mps 720 mmHg 71%

    30 May, Thursday

    Time Temperature Precipitation Wind Pressure Humidity
    00:00 +27°C° 0 mm 5 mps 719 mmHg 72%
    01:00 +27°C° 0 mm 5 mps 719 mmHg 73%
    02:00 +27°C° 0 mm 5 mps 719 mmHg 75%
    03:00 +27°C° 0 mm 5 mps 719 mmHg 76%
    04:00 +27°C° 0 mm 5 mps 719 mmHg 77%
    05:00 +26°C° 0 mm 5 mps 719 mmHg 79%
    06:00 +27°C° 0 mm 6 mps 719 mmHg 78%
    07:00 +27°C° 0 mm 6 mps 720 mmHg 78%
    08:00 +27°C° 0 mm 6 mps 721 mmHg 77%
    09:00 +28°C° 0 mm 6 mps 720 mmHg 73%
    10:00 +29°C° 0 mm 6 mps 720 mmHg 69%
    11:00 +30°C° 0 mm 7 mps 720 mmHg 66%
    12:00 +32°C° 0 mm 7 mps 719 mmHg 62%
    13:00 +32°C° 0 mm 7 mps 718 mmHg 59%
    14:00 +33°C° 0 mm 7 mps 718 mmHg 56%
    15:00 +33°C° 0 mm 6 mps 717 mmHg 58%
    16:00 +32°C° 0 mm 5 mps 717 mmHg 60%
    17:00 +32°C° 0 mm 4 mps 717 mmHg 62%
    18:00 +30°C° 0 mm 4 mps 718 mmHg 63%
    19:00 +29°C° 0 mm 4 mps 718 mmHg 65%
    20:00 +29°C° 0 mm 4 mps 719 mmHg 66%
    21:00 +28°C° 0 mm 4 mps 719 mmHg 69%
    22:00 +28°C° 0 mm 4 mps 719 mmHg 71%
    23:00 +27°C° 0 mm 4 mps 719 mmHg 73%
    Show more